AEROCUBE 7

Last updated on Sun Jul 06 2025 00:03:42 GMT+0000 (Coordinated Universal Time)

1 40966U 15058C 25186.54924478 .00003727 00000+0 30670-3 0 9996 2 40966 64.7635 247.6163 0152639 192.1340 167.6082 14.92037960314170
UTC large
Height (km)
Speed (km/s)
/
Latitude / Longitude
Inclination (degrees)
Orbital Period (minutes)
Azimuth
Elevation
Range (km)
Doppler Factor

Next 0 passes for location: London (51.5072 / 0.1276)

Sorry there are no passes over London.